Weather Service Report


352 
ASUS45 KBOU 201510
RWRCO 

WEATHER ROUNDUP FOR COLORADO
NATIONAL WEATHER SERVICE DENVER/BOULDER CO
900 AM MDT SAT OCT 20 2018

NOTE: "FAIR" INDICATES FEW OR NO CLOUDS BELOW 12000 FEET WITH NO
SIGNIFICANT WEATHER AND/OR OBSTRUCTIONS TO VISIBILITY.

COZ001>005-013-030-031-201600-
...NORTHWEST COLORADO...
  
CITY           SKY/WX    TMP DP  RH WIND       PRES   REMARKS
CRAIG          FAIR      30  28  92 CALM      30.51R                  
HAYDEN         FAIR      38  28  67 E9        30.51S                  
MEEKER         FAIR      33  27  78 CALM      30.50R                  
RANGELY        FAIR      35  32  89 CALM      30.50R                  
RABBIT EARS PA FAIR      37  21  52 CALM      30.62R                  
STEAMBOAT SPGS FAIR      32  30  91 CALM      30.52R                  
WALDEN         NOT AVBL                                               
$$

COZ006>008-011-201600-
...WEST CENTRAL VALLEYS...
  
CITY           SKY/WX    TMP DP  RH WIND       PRES   REMARKS
GRAND JUNCTION FAIR      47  35  63 SE12      30.45R                  
MONTROSE       FAIR      40  32  73 SE7       30.51R                  
EAGLE          FAIR      32  26  78 CALM      30.59R                  
RIFLE          FAIR      37  32  82 CALM      30.50R                  
DELTA          FAIR      41  32  72 CALM      30.51R                  
NUCLA          FAIR      41  30  65 E3        30.51R                  
$$

COZ017>023-064>068-201600-
...SOUTHWEST COLORADO...
  
CITY           SKY/WX    TMP DP  RH WIND       PRES   REMARKS
DURANGO        PTSUNNY   40  30  67 CALM      30.49R                  
CORTEZ         FAIR      43  32  65 NE3       30.46R                  
PAGOSA SPRINGS FAIR      43  26  50 CALM      30.54R                  
TELLURIDE      FAIR      37  23  56 SE6       30.59R                  
WOLF CREEK PAS FAIR      32  19  59 CALM      30.72R                  
$$

COZ009-010-012-014-032>034-037-058>063-201600-
...CENTRAL COLORADO...
  
CITY           SKY/WX    TMP DP  RH WIND       PRES   REMARKS
ASPEN          FAIR      37  25  61 CALM      30.54R                  
BUENA VISTA    FAIR      37  24  57 CALM      30.58R                  
COPPER MTN     FAIR      37  16  41 CALM      30.67R                  
BERTHOUD PASS  FAIR      28  14  54 NW6       30.68R WCI  22          
COTTONWOOD PAS FAIR      41  18  38 CALM      30.61R                  
GUNNISON       FAIR      29  17  61 CALM      30.61R                  
GRANBY         FAIR      28  25  87 CALM      30.59S                  
KREMMLING      FAIR      28  25  86 CALM      30.61R                  
LEADVILLE      FAIR      30  20  66 CALM      30.60R                  
MONARCH PASS   FAIR      32  14  47 SW9       30.77R WCI  24          
SALIDA         FAIR      37  23  57 CALM      30.65R                  
SUNLIGHT       FAIR      36  14  41 S5        30.66R                  
WILKERSON PASS FAIR      36  12  38 E5        30.67R                  
$$

COZ069>075-201600-
...SAN LUIS VALLEY/SANGRE DE CRISTO MOUNTAINS...
  
CITY           SKY/WX    TMP DP  RH WIND       PRES   REMARKS
ALAMOSA        FAIR      32  19  58 E3        30.57R                  
DEL NORTE      FAIR      38  20  48 W14       30.58R                  
LA VETA PASS   NOT AVBL                                               
SAGUACHE       FAIR      36  19  51 CALM      30.57R                  
$$

COZ035-036-038>040-201600-
...NORTHERN COLORADO FRONT RANGE...
  
CITY           SKY/WX    TMP DP  RH WIND       PRES   REMARKS
DENVER INTL AP FAIR      49  26  41 SW7       30.45R                  
AURORA         SUNNY     48  26  43 SW8       30.46R                  
FRONT RANGE AP SUNNY     50  28  43 SW9       30.46R                  
ERIE MUNI ARPT FAIR      44  33  64 CALM      30.50R                  
BOULDER MUN AP FAIR      45  32  61 CALM      30.44R                  
CENTENNIAL     FAIR      49  25  39 W8        30.46R                  
BROOMFIELD     SUNNY     50  25  37 CALM      30.46R                  
FORT COLLINS   FAIR      45  34  65 CALM      30.44R                  
LONGMONT       FAIR      47  35  63 CALM      30.46R                  
$$

COZ041-046-047-076>085-087-088-201600-
...PIKES PEAK/PALMER DIVIDE AND SOUTHERN FOOTHILLS...
  
CITY           SKY/WX    TMP DP  RH WIND       PRES   REMARKS
COLO. SPRINGS  FAIR      53  27  36 CALM      30.48R                  
A. F. ACADEMY  FAIR      45  23  41 N8        30.47R                  
SCHRIEVER AFB  NOT AVBL                                               
CHEYENNE MTN   FAIR      51  21  30 CALM      30.44R                  
ELLICOTT         N/A    N/A N/A N/A CALM      30.46R                  
FALCON         FAIR      50  20  30 E5        30.50R                  
FORT CARSON    FAIR      47  26  45 N6        30.46R                  
LIMON          FAIR      47  32  56 NW5       30.45R                  
MONUMENT HILL  FAIR      48  25  40 W5        30.51R                  
CANON CITY     NOT AVBL                                               
WALSENBURG     NOT AVBL                                               
TRINIDAD       FAIR      48  24  39 W16       30.48R                  
$$

COZ042>045-048>051-090-091-201600-
...NORTHEAST COLORADO...
  
CITY           SKY/WX    TMP DP  RH WIND       PRES   REMARKS
GREELEY ARPT   FAIR      39  32  76 CALM      30.45R                  
AKRON          FAIR      48  30  49 W12       30.42R                  
BURLINGTON     FAIR      50  36  58 W8        30.42R                  
WRAY           FAIR      43  32  65 CALM      30.43R                  
YUMA           FAIR      46  30  53 NW5       30.42R                  
STERLING       FAIR      36  32  87 S5        30.42R                  
HOLYOKE        FAIR      46  32  57 N6        30.43R                  
FORT MORGAN      N/A     40  30  67 W6        30.44R                  
$$

COZ086-089-092>099-201600-
...SOUTHEAST COLORADO...
  
CITY           SKY/WX    TMP DP  RH WIND       PRES   REMARKS
PUEBLO         FAIR      43  29  57 SW7       30.45R                  
LA JUNTA       FAIR      45  31  58 SW9       30.45R                  
LAMAR          FAIR      45  36  70 W9        30.43R                  
SPRINGFIELD      N/A     52  38  58 SW5       30.44R                  
$$
  

Return to Home page


Western Regional Climate Center, wrcc@dri.edu